Lakeville, MN

1:56 AM CST on December 08, 2016 (GMT -0600)
Airlake

Weather History for KLVN - July, 2014

Change the Weather History Date:

Sunday, July 13, 2014

  Actual Average Record
Temperature  
Mean Temperature 66 °F -  
Max Temperature 75 °F 83 °F 96 °F (1974)
Min Temperature 57 °F 61 °F 42 °F (2007)
Cooling Degree Days 1    
Growing Degree Days 16 (Base 50)    
Moisture  
Dew Point 56 °F    
Average Humidity 70    
Maximum Humidity 100    
Minimum Humidity 43    
Precipitation  
Precipitation 0.00 in - - ()
Sea Level Pressure  
Sea Level Pressure 29.93 in    
Wind  
Wind Speed 6 mph (WNW)    
Max Wind Speed 16 mph    
Max Gust Speed 21 mph    
Visibility 10 miles    
Events      
Averages and records for this station are not official NWS values.
T = Trace of Precipitation, MM = Missing Value Source: NWS Daily Summary

Daily Weather History Graph

Daily Weather History Graph

Search for Another Location

Airport or City:

Trip Planner

Search our weather history database for the weather conditions in past years. The results will help you decide how hot, cold, wet, or windy it might be!

Date:

Astronomy

Jul. 13, 2014 Rise Set
Actual Time 5:40 AM CDT 8:56 PM CDT
Civil Twilight 5:04 AM CDT 9:32 PM CDT
Nautical Twilight 4:17 AM CDT 10:18 PM CDT
Astronomical Twilight 3:20 AM CDT 11:15 PM CDT
Moon 9:38 PM CDT (7/13) 7:17 AM CDT (7/13)
Length of Visible Light 16h 28m
Length of Day
15h 16m
Full, 98% of the Moon is Illuminated
Jul 13
Full
Jul 18
Last Quarter
Jul 26
New
Aug 3
First Quarter
Aug 10
Full

Hourly Weather History & Observations

Time (CDT) Temp. Dew Point Humidity Pressure Visibility Wind Dir Wind Speed Gust Speed Precip Events Conditions
12:14 AM 64.4 °F 62.6 °F 94% 29.94 in 10.0 mi SW 4.6 mph - N/A   Clear
12:34 AM 64.4 °F 62.6 °F 94% 29.93 in 10.0 mi SW 5.8 mph - N/A   Clear
12:53 AM 64.4 °F 62.6 °F 94% 29.92 in 10.0 mi WSW 5.8 mph - N/A   Clear
1:14 AM 64.4 °F 62.6 °F 94% 29.92 in 10.0 mi WSW 5.8 mph - N/A   Clear
1:34 AM 64.4 °F 62.6 °F 94% 29.92 in 10.0 mi WSW 5.8 mph - N/A   Clear
1:53 AM 64.4 °F 62.6 °F 94% 29.91 in 10.0 mi WSW 4.6 mph - N/A   Clear
2:14 AM 64.4 °F 62.6 °F 94% 29.91 in 10.0 mi WSW 4.6 mph - N/A   Clear
2:33 AM 64.4 °F 62.6 °F 94% 29.90 in 10.0 mi WSW 4.6 mph - N/A   Scattered Clouds
2:53 AM 64.4 °F 62.6 °F 94% 29.90 in 10.0 mi WSW 4.6 mph - N/A   Scattered Clouds
3:14 AM 64.4 °F 62.6 °F 94% 29.90 in 10.0 mi SW 4.6 mph - N/A   Clear
3:33 AM 64.4 °F 62.6 °F 94% 29.90 in 10.0 mi WSW 6.9 mph - N/A   Clear
3:53 AM 64.4 °F 62.6 °F 94% 29.90 in 10.0 mi WSW 6.9 mph - N/A   Clear
4:14 AM 64.4 °F 62.6 °F 94% 29.91 in 10.0 mi WSW 5.8 mph - N/A   Clear
4:33 AM 64.4 °F 62.6 °F 94% 29.91 in 10.0 mi WSW 6.9 mph - N/A   Clear
4:53 AM 64.4 °F 62.6 °F 94% 29.92 in 10.0 mi West 5.8 mph - N/A   Scattered Clouds
5:13 AM 64.4 °F 62.6 °F 94% 29.93 in 10.0 mi WNW 6.9 mph - N/A   Mostly Cloudy
5:33 AM 62.6 °F 62.6 °F 100% 29.93 in 10.0 mi WNW 5.8 mph - N/A   Scattered Clouds
5:54 AM 62.6 °F 60.8 °F 94% 29.94 in 10.0 mi NW 4.6 mph - N/A   Clear
6:13 AM 62.6 °F 60.8 °F 94% 29.95 in 10.0 mi NW 5.8 mph - N/A   Clear
6:33 AM 62.6 °F 60.8 °F 94% 29.95 in 10.0 mi NW 5.8 mph - N/A   Clear
6:54 AM 62.6 °F 60.8 °F 94% 29.96 in 10.0 mi NW 3.5 mph - N/A   Clear
7:13 AM 62.6 °F 60.8 °F 94% 29.97 in 10.0 mi NW 4.6 mph - N/A   Clear
7:33 AM 64.4 °F 59.0 °F 83% 29.97 in 10.0 mi WNW 5.8 mph - N/A   Clear
7:54 AM 64.4 °F 59.0 °F 83% 29.98 in 10.0 mi NW 5.8 mph - N/A   Clear
8:13 AM 64.4 °F 57.2 °F 77% 29.98 in 10.0 mi NW 5.8 mph - N/A   Clear
8:33 AM 64.4 °F 59.0 °F 83% 29.98 in 10.0 mi NW 4.6 mph - N/A   Clear
8:54 AM 64.4 °F 57.2 °F 77% 29.98 in 10.0 mi North 6.9 mph - N/A   Clear
9:13 AM 66.2 °F 57.2 °F 73% 29.98 in 10.0 mi NW 5.8 mph - N/A   Clear
9:33 AM 66.2 °F 57.2 °F 73% 29.98 in 10.0 mi NNW 6.9 mph - N/A   Clear
9:54 AM 66.2 °F 55.4 °F 68% 29.98 in 10.0 mi WNW 6.9 mph - N/A   Clear
10:13 AM 68.0 °F 55.4 °F 64% 29.98 in 10.0 mi NW 6.9 mph - N/A   Clear
10:33 AM 68.0 °F 53.6 °F 60% 29.98 in 10.0 mi NW 3.5 mph - N/A   Clear
10:54 AM 69.8 °F 51.8 °F 53% 29.99 in 10.0 mi NNW 5.8 mph - N/A   Clear
11:13 AM 69.8 °F 51.8 °F 53% 29.98 in 10.0 mi West 5.8 mph - N/A   Clear
11:34 AM 69.8 °F 50.0 °F 49% 29.98 in 10.0 mi West 4.6 mph - N/A   Clear
11:54 AM 71.6 °F 48.2 °F 43% 29.98 in 10.0 mi West 9.2 mph - N/A   Clear
12:13 PM 71.6 °F 50.0 °F 46% 29.98 in 10.0 mi West 6.9 mph - N/A   Clear
12:34 PM 71.6 °F 48.2 °F 43% 29.98 in 10.0 mi West 8.1 mph - N/A   Clear
12:53 PM 71.6 °F 48.2 °F 43% 29.97 in 10.0 mi NW 9.2 mph - N/A   Clear
1:13 PM 71.6 °F 51.8 °F 50% 29.97 in 10.0 mi WNW 11.5 mph 17.3 mph N/A   Clear
1:34 PM 71.6 °F 51.8 °F 50% 29.96 in 10.0 mi West 8.1 mph 17.3 mph N/A   Clear
1:54 PM 71.6 °F 51.8 °F 50% 29.96 in 10.0 mi WNW 11.5 mph - N/A   Scattered Clouds
2:13 PM 71.6 °F 51.8 °F 50% 29.95 in 10.0 mi WNW 10.4 mph - N/A   Scattered Clouds
2:33 PM 73.4 °F 53.6 °F 50% 29.95 in 10.0 mi WNW 15.0 mph 20.7 mph N/A   Scattered Clouds
2:54 PM 73.4 °F 53.6 °F 50% 29.94 in 10.0 mi WNW 10.4 mph - N/A   Scattered Clouds
3:13 PM 73.4 °F 51.8 °F 47% 29.93 in 10.0 mi WNW 15.0 mph 19.6 mph N/A   Scattered Clouds
3:34 PM 73.4 °F 53.6 °F 50% 29.93 in 10.0 mi West 13.8 mph 19.6 mph N/A   Clear
3:54 PM 73.4 °F 51.8 °F 47% 29.93 in 10.0 mi West 16.1 mph - N/A   Clear
4:13 PM 73.4 °F 53.6 °F 50% 29.92 in 10.0 mi WNW 11.5 mph 18.4 mph N/A   Clear
4:33 PM 73.4 °F 53.6 °F 50% 29.91 in 10.0 mi West 9.2 mph 19.6 mph N/A   Clear
4:53 PM 73.4 °F 53.6 °F 50% 29.91 in 10.0 mi West 11.5 mph 17.3 mph N/A   Scattered Clouds
5:14 PM 75.2 °F 53.6 °F 47% 29.91 in 10.0 mi West 10.4 mph 17.3 mph N/A   Scattered Clouds
5:33 PM 73.4 °F 53.6 °F 50% 29.90 in 10.0 mi West 12.7 mph 16.1 mph N/A   Scattered Clouds
5:53 PM 73.4 °F 53.6 °F 50% 29.90 in 10.0 mi West 9.2 mph 19.6 mph N/A   Clear
6:14 PM 73.4 °F 53.6 °F 50% 29.90 in 10.0 mi West 8.1 mph - N/A   Scattered Clouds
6:33 PM 73.4 °F 53.6 °F 50% 29.89 in 10.0 mi WNW 10.4 mph 16.1 mph N/A   Clear
6:53 PM 73.4 °F 53.6 °F 50% 29.89 in 10.0 mi WNW 10.4 mph - N/A   Scattered Clouds
7:14 PM 71.6 °F 53.6 °F 53% 29.89 in 10.0 mi WNW 11.5 mph - N/A   Clear
7:33 PM 71.6 °F 53.6 °F 53% 29.90 in 10.0 mi WNW 10.4 mph - N/A   Clear
7:54 PM 69.8 °F 51.8 °F 53% 29.90 in 10.0 mi WNW 9.2 mph - N/A   Clear
8:13 PM 68.0 °F 53.6 °F 60% 29.90 in 10.0 mi West 6.9 mph - N/A   Clear
8:34 PM 66.2 °F 51.8 °F 60% 29.91 in 10.0 mi West 5.8 mph - N/A   Clear
8:53 PM 64.4 °F 51.8 °F 64% 29.90 in 10.0 mi West 5.8 mph - N/A   Clear
9:14 PM 62.6 °F 51.8 °F 68% 29.91 in 10.0 mi West 5.8 mph - N/A   Clear
9:34 PM 62.6 °F 51.8 °F 68% 29.91 in 10.0 mi West 4.6 mph - N/A   Clear
9:53 PM 62.6 °F 51.8 °F 68% 29.92 in 10.0 mi Calm Calm - N/A   Clear
10:14 PM 60.8 °F 51.8 °F 72% 29.92 in 10.0 mi Calm Calm - N/A   Clear
10:33 PM 60.8 °F 50.0 °F 68% 29.92 in 10.0 mi WNW 3.5 mph - N/A   Clear
10:53 PM 60.8 °F 48.2 °F 63% 29.91 in 10.0 mi West 3.5 mph - N/A   Clear
11:13 PM 60.8 °F 50.0 °F 68% 29.91 in 10.0 mi Calm Calm - N/A   Clear
11:34 PM 57.2 °F 51.8 °F 82% 29.91 in 10.0 mi Calm Calm - N/A   Clear
11:53 PM 57.2 °F 51.8 °F 82% 29.91 in 10.0 mi Calm Calm - N/A   Clear